COSMOS 2251 DEB, 33825

Orbit data source: Space-Track

COSMOS 2251 DEB, 33825 is space debris in LEO originally from a launch on Wed, 16 Jun 1993 UTC launched from the Plesetsk Missile And Space Complex (PKMTR). The debris from Iridium 33, an American commercial communications satellite, has been tracked extensively since its accidental collision with the defunct Russian satellite Cosmos 2251 in 2009. This event, occurring at high speed in low Earth orbit (LEO), generated thousands of pieces of space debris, significantly increasing the risk of further collisions. The Iridium 33 debris cloud has impacted space traffic management and orbital debris mitigation strategies, making it a subject of ongoing study in space situational awareness.

Loading next visibility...
Identifier
33825, 1993-036BS
Orbit
LEO
Country
Flag of CISCIS
Related business
Manufacturer
Unknown
Mission
Spacecraft
Bus & Motor
Unknown
Mass
Unknown
Launch date (UTC)
1993-06-16 (33 years ago)
Launch vehicle
Unknown
Launch site
Plesetsk Missile And Space Complex (PKMTR)
Object type
Payload
Rocket body
Debris
Shape & HBR
Unknown shape, 0.2 m
Radar Cross Section
Small (<0.1 m²)

Expand to show TLE details & history
Last TLE update: 11 hours ago

TLE from 11 hours ago
0 COSMOS 2251 DEB
1 33825U 93036BS  26120.01709288  .00010205  00000-0  15443-2 0  9995
2 33825  73.9804 118.3305 0076774  51.7011 334.0182 14.72287574909131
Epoch: 2026-04-30T00:24Z
TLE epoch observation values (Epoch: 2026-04-30T00:24:36.824Z)
Latitude
24.31506°
Longitude
-98.37961°
Altitude
607.981 km
Speed
7.584 km/s
True Right ascension
08h 22m 58s
True Declination
24° 11' 01"
Sunlit
Object was in daylight at epoch
Visualization orbit readout
Latitude
Unknown
Longitude
Unknown
Altitude
Unknown
Speed
Unknown
Apparent Right ascension
Unknown
Apparent Declination
Unknown
Sunlit
N/A
Visualization observer readout
Local Sidereal Time
18:32:55
Azimuth
Unknown
Elevation
Unknown
Doppler factor
Unknown
Orbital elements
Apogee altitude
705.332 km
Perigee altitude
597.395 km
Semi-major axis
7,029.5 km
Eccentricity
0.00768
Inclination
73.9804°
RAAN
118.3305°
Arg. of periapsis
51.7011°
True anomaly
333.62944°
Mean anomaly
334.0182°
Eccentric anomaly
333.82416°
Mean motion
3.68262 °/min
Orbital period
97.76 mins
BSTAR
0.0015443
Loading maneuver chart data...
Computing Atmospheric mass density...

Documentation

Showing up to 5 results
|